Venez explorer les airs avec nous!

Que ce soit pour un vol de découverte, pour apprendre l’arts du pilotage ou pour voyager, venez nous rejoindre.

Information en heures locale pour LFDL
09 December 2021

Metar
LFBI 090130Z AUTO 23004KT CAVOK M00/M01 Q1010 TEMPO 0400 FG VV///

Lever du soleil : 08:34

Coucher du soleil : 17:09

Actualité

Nous sommes heureux d’accueillir un ULM Savannah au sein de notre flotte. Grace à cet appareil, vous pourrez découvrir une …

Bonjour tout le monde !

Bienvenue à tous, l’ Aéroclub Loudunais vous accueille sur son nouveau site internet.

Newsletter Sign Up

Praesent libero sed cursus anted dapibus diam